Location: McDonald Observatory
(30.6717°N, 104.0221°W)
Time: 18:22:04
(UTC-05:00)

Daily predictions for brighter satellites

Satellite Brightness Start Highest point End
(mag) Time Altitude Azimuth Time Altitude Azimuth Time Altitude Azimuth
Thor Agena Rocket 4.2 20:44:02 10° NE 20:48:45 33° E 20:53:28 10° SSE
Cosmos 2184 Rocket 4.1 20:43:24 10° S 20:49:25 58° E 20:55:26 10° NNE
Cosmos 2151 3.3 20:45:45 10° N 20:50:02 74° W 20:54:19 10° S
Cosmos 2360 Rocket 2.9 20:48:35 10° SSW 20:54:08 62° WNW 20:59:43 10° NNE
DELTA 2 R/B (1) 4.1 20:49:13 10° WNW 20:54:36 54° SSW 21:00:00 10° SE
HJ-1C 3.9 20:51:33 10° SE 20:54:40 38° ENE 20:57:48 10° N
GPS 2-05 Rocket1 3.1 20:51:48 10° WNW 20:55:08 55° NNE 20:58:27 10° E
Resurs 01 Rocket 3.4 20:53:24 10° ESE 20:55:51 15° ENE 20:58:16 10° NE
Sakura Rocket 3.7 20:51:21 10° SW 20:56:06 39° SSE 20:59:51 10° E
ATLAS 3B CENTAUR R/B 4.1 20:37:51 10° W 20:56:18 60° SSW 21:03:07 10° SE
CZ-2D R/B 3.9 20:55:58 10° SE 20:59:26 35° ENE 21:02:54 10° N
FREGAT/IRIS 2.4 20:56:57 10° SSE 20:59:52 75° ENE 21:02:49 10° N
Cosmos 2333 Rocket 3.0 20:55:38 10° SSE 21:00:26 29° ESE 21:05:14 10° NE
NOSS 2-1 (C) 3.0 20:59:16 10° SSW 21:02:56 85° ESE 21:06:38 10° NNE
NOSS 2-1 (D) 3.1 21:00:14 10° SSW 21:03:54 89° SE 21:07:36 10° NNE
COSMOS 2428 2.7 20:59:55 10° S 21:05:32 61° ESE 21:11:11 10° NNE
FengYun 1-2 T 4.4 21:01:06 10° S 21:06:41 80° WSW 21:12:20 10° NNW
Cosmos 2333 4.2 21:03:11 10° S 21:08:48 69° ESE 21:14:24 10° NNE
Cosmos 1455 3.6 21:07:46 10° SE 21:10:27 19° E 21:13:10 10° NE
deb Centaur AC-2 4.0 21:06:54 10° W 21:11:14 80° S 21:15:31 13° E
Delta 128 4.3 21:07:50 10° W 21:13:04 66° S 21:18:20 15° ESE
ATLAS 2AS CENTAUR R/B 4.5 21:08:10 10° N 21:13:26 19° NE 21:18:17 10° E
ERS-2 2.6 21:13:45 10° SE 21:17:12 41° ENE 21:20:40 10° N
Cosmos 1844 Rocket 3.6 21:14:13 10° N 21:19:14 31° ENE 21:22:47 17° ESE
Cosmos 2263 Rocket 3.4 21:15:48 10° NW 21:21:08 43° WSW 21:26:25 10° S
Cosmos 1892 4.0 21:18:22 10° NNE 21:21:30 23° E 21:22:50 19° ESE
Cosmos 2237 Rocket 3.1 21:17:47 10° SSE 21:22:12 24° ESE 21:26:38 10° NE
Cosmos 2219 Rocket 2.2 21:17:26 10° S 21:22:58 58° ESE 21:28:32 10° NNE
ATLAS CENTAUR R/B 1.5 21:21:38 10° S 21:24:59 38° ESE 21:28:26 10° NE
USA 186 1.9 21:26:57 28° ENE 21:26:57 28° ENE 21:28:45 10° NNE
NOSS 0 Rocket 4.2 21:26:07 10° S 21:31:50 42° ESE 21:37:36 10° NE
Cosmos 1610 Rocket 4.5 21:26:32 10° S 21:32:39 88° W 21:38:48 10° N
Resurs 1-3 4.1 21:31:17 20° SE 21:33:52 41° ENE 21:37:59 10° N
NOSS 2-1 (E) 4.5 21:30:50 10° SW 21:34:17 41° WNW 21:37:53 10° NNE
Cosmos 2278 Rocket 4.0 21:33:25 10° NNE 21:36:11 14° ENE 21:37:23 13° ENE
Cosmos 1666 Rocket 3.8 21:33:26 10° N 21:37:46 47° E 21:40:15 23° SE
YAOGAN 6 2.7 21:36:12 25° SE 21:38:02 54° ENE 21:41:34 10° N
OAO 2 Rocket 3.8 21:35:33 10° WNW 21:40:40 55° N 21:43:55 21° ENE
NOSS 3-3 (A) 4.1 21:39:50 10° SSW 21:45:43 76° WNW 21:52:06 10° NNE
NOSS 3-3 (C) 4.0 21:39:57 10° SSW 21:45:50 77° WNW 21:52:12 10° NNE
Cosmos 1340 3.6 21:43:27 10° SSW 21:47:06 49° W 21:50:48 10° N
Meteor 2-21 Rocket 4.4 21:41:45 10° S 21:47:50 80° E 21:54:00 10° N
Cosmos 494 Rocket 4.3 21:44:09 10° NNW 21:49:20 69° WSW 21:54:08 12° S
Cosmos 1151 Rocket 3.5 21:50:12 36° E 21:50:20 36° E 21:54:14 10° NNE
SAR-Lupe-3 4.4 21:47:01 10° NNE 21:50:37 82° ESE 21:54:02 11° S
ATLAS 2A CENTAUR R/B 2.9 21:46:29 10° W 21:51:09 30° SSW 21:51:35 28° S
Sich 1 2.8 21:48:26 10° N 21:52:43 83° E 21:55:09 25° S
Cosmos 1939 Rocket 2.6 21:52:00 30° SSE 21:53:51 86° ENE 21:57:44 10° N
SJ-6B 4.3 21:50:44 10° SSW 21:54:30 36° W 21:58:14 10° NNW
ASTRO E2 4.0 21:55:32 10° SW 21:58:03 26° S 21:58:03 26° S
BREEZE-M DEB (TANK) 4.3 21:28:03 10° NW 21:59:16 89° NE 22:02:23 32° SE
Cosmos 2251 Rocket 3.4 21:55:42 10° NNW 22:01:06 80° ENE 22:03:37 32° SSE
USA 267 3.4 21:55:18 10° NE 22:01:32 46° SE 22:07:45 10° SSW
Nadezhda 3 Rocket 4.0 21:55:41 10° N 22:02:02 89° E 22:07:28 15° S
Envisat 4.2 21:57:35 10° S 22:02:21 41° W 22:07:08 10° NNW
Cosmos 1825 4.4 22:02:22 10° NNE 22:03:17 14° NE 22:03:17 14° NE
OAO 3 Copernicus 4.4 22:02:10 10° SW 22:07:01 50° SSE 22:07:25 49° SE
Cosmos 2228 Rocket 2.9 22:09:26 56° SSE 22:10:13 71° E 22:14:36 10° N
SL-16 R/B 4.3 22:15:04 11° NE 22:15:04 11° NE 22:15:21 10° NE
Cosmos 1633 Rocket 3.0 22:07:17 10° N 22:11:37 80° W 22:12:59 43° S
Meteor 2-3 Rocket 3.6 22:09:23 10° N 22:15:01 78° E 22:16:59 42° SSE
SL-8 R/B 4.3 22:10:36 10° WSW 22:15:18 56° NW 22:19:40 12° NE
Cosmos 1515 Rocket 3.4 22:14:21 54° S 22:15:21 83° E 22:19:50 10° N
SL-24 R/B - RUBIN 2 3.4 22:19:02 10° NNW 22:23:23 82° WSW 22:23:29 81° SW
ARGOS 3.7 22:26:04 40° ENE 22:26:04 40° ENE 22:30:33 10° N
Resurs 01 Rocket 2.9 22:30:07 26° SSW 22:31:56 38° W 22:36:05 10° NNW
GEOS 3 Rocket 3.5 22:28:46 10° NNE 22:34:06 90° WNW 22:39:19 10° SSW
Cosmos 1980 4.2 22:32:23 10° SSW 22:37:56 57° WNW 22:43:33 10° N
Cosmos 2333 Rocket 4.0 22:39:40 10° WSW 22:44:33 29° WNW 22:49:27 10° N
Spot 2 Rocket 4.5 22:43:54 34° SW 22:45:24 43° W 22:50:15 10° NNW
Cosmos 1959 Rocket 4.5 22:44:38 45° SSW 22:46:40 78° W 22:52:49 10° N
Cosmos 1727 Rocket 4.4 22:44:50 10° N 22:49:43 47° NE 22:49:43 47° NE
Meteor 2-10 Rocket 3.9 22:52:19 66° NNE 22:52:19 66° NNE 22:57:16 10° N
Cosmos 2218 Rocket 4.4 22:56:37 36° SW 22:59:09 60° W 23:05:28 10° N
Cosmos 1844 Rocket 4.3 22:58:14 10° NW 23:02:55 27° WSW 23:04:30 24° SW
ATLAS 2AS CENTAUR R/B 2.7 22:57:41 10° NNW 23:05:27 87° WSW 23:05:44 83° S
Cosmos 2237 Rocket 3.7 23:00:57 10° SW 23:05:59 34° WNW 23:11:04 10° N
H-2A R/B 3.3 23:19:45 36° NNW 23:19:45 36° NNW 23:22:42 10° NNW
Cosmos 2278 Rocket 3.0 23:15:05 10° NNW 23:19:15 48° NW 23:19:15 48° NW
USA 267 4.3 23:38:23 10° NNE 23:44:23 40° NW 23:50:22 10° WSW
ATLAS 2A CENTAUR R/B 4.0 23:30:33 10° WSW 23:42:28 46° SW 23:42:28 46° SW
SL-16 R/B 4.1 23:56:50 26° NNW 23:56:50 26° NNW 23:59:48 10° N
